Regional Weather Roundup
Issued by NWS Newport/Morehead, NC

Current Version | Previous Version | Text Only | Print | Product List | Glossary On
Versions: 1 2 3 4 5 6 7 8 9 10 11 12 13 14 15 16 17 18 19 20 21 22 23 24 25 26 27 28 29 30 31 32 33 34 35 36 37 38 39 40 41 42 43 44 45 46 47 48 49 50
000 ASUS42 KMHX 210022 RWRMHX WEATHER ROUNDUP FOR EASTERN NORTH CAROLINA NATIONAL WEATHER SERVICE NEWPORT/MOREHEAD CITY NC 800 PM EDT MON OCT 20 2014 NOTE: "FAIR" INDICATES FEW OR NO CLOUDS BELOW 12,000 FEET WITH NO SIGNIFICANT WEATHER AND/OR OBSTRUCTIONS TO VISIBILITY NCZ015>017-031-032-045>047-102-103-210100- NORTH COAST CITY SKY/WX TMP DP RH WIND PRES REMARKS EDENTON PTCLDY 63 55 75 S7 30.02S ELIZABETH CITY CLEAR 61 52 72 S5 30.03R KITTY HAWK MOCLDY 63 56 79 CALM 30.02S MANTEO MOCLDY 64 57 79 S5 30.03S $$ NCZ045>047-081-094-103-104-210100- CENTRAL COAST CITY SKY/WX TMP DP RH WIND PRES REMARKS FRISCO PTCLDY 69 58 67 S9 30.04R SWANQUARTER N/A 66 N/A N/A S7 30.00S $$ NCZ095-097-098-100-101-210100- SOUTHERN COAST CITY SKY/WX TMP DP RH WIND PRES REMARKS BEAUFORT MOCLDY 63 57 81 CALM 30.02S CEDAR ISLAND N/A 66 N/A N/A S2 30.06S JACKSONVILLE MOCLDY 63 58 83 SW3 30.02R PINEY ISLAND MOCLDY 66 55 67 CALM 30.03R WILMINGTON PTCLDY 62 58 86 CALM 30.02R $$ NCZ011>013-027>030-043-044-078>080-089-090>093-098-210100- COASTAL PLAIN CITY SKY/WX TMP DP RH WIND PRES REMARKS AHOSKIE MOCLDY 54 51 90 CALM 30.02R CLINTON PTCLDY 63 57 81 CALM 30.01S ELIZABETHTOWN CLEAR 63 56 79 CALM 30.01S GOLDSBORO PTCLDY 61 58 91 SE2 29.99R GREENVILLE PTCLDY 63 55 77 S3 30.03R HAVELOCK PTCLDY 60 56 86 SE5 30.03S KENANSVILLE CLEAR 60 55 83 CALM 30.03R KINSTON CLEAR 63 55 77 S5 30.02R NEW BERN PTCLDY 63 55 75 S5 30.04R RICHLANDS PTCLDY 61 54 77 S5 30.03S ROCKY MOUNT CLEAR 55 52 89 CALM 30.00S WASHINGTON CLEAR 63 55 76 S5 30.02S WHITEVILLE CLEAR 62 57 84 CALM 30.01S $$ AMZ130-135-150-152-154-156-158-170-250-252-270-ANZ085-086-088-633-658-670-210100- MARINE OBSERVATIONS STATION/POSITION TIME TEMP WIND PRES WAVE SWELL AIR SEA DIR/SP/G HT/PER HT/PER (UTC) (F) (DEG/KT/KT) (MB) (FT/S) (FT/S) CHESAPEAKE LIGHT 0000 67 200/ 17/ 19 1016.7 64 E VA BEACH 0000 69 69 200/ 19/ 21 1016.0 3/ 4 2/12 DUCK 0000 64 69 190/ 8/ 9 1016.0 2 E DUCK 0000 N/A 2/12 2/12 10 NE DUCK 0000 71 N/A 3/12 2/12 OREGON INLET 0000 67 67 160/ 8/ 11 1016.8 13E OREGON INLT 0000 73 N/A 3/11 2/11 HATTERAS CG 0000 71 69 170/ 9/ 14 1017.3 DIAMOND BUOY 0000 71 180/ 17/ 19 1017.2 4/ 8 3/ 8 17 S OCRACOKE 2300 VRB 8/ 10 1016.6 CAPE LOOKOUT 0000 72 170/ 14/ 15 1016.6 BEAUFORT LAB 0000 71 70 170/ 8/ 12 1015.9 30 SE NEW RIVER 0000 74 76 180/ 10/ 12 1016.1 2/11 2/11 5 SE WRIGHTSVLE 0000 69 74 200/ 8/ 10 N/A 225 S CAPE HAT NOT AVBL 41 SE CHARLESTON 0000 76 79 210/ 8/ 10 1015.6 3/ 9 3/ 9 $$

USA.gov is the U.S. government's official web portal to all federal, state and local government web resources and services.